Torna al catalogo

CZ-3C DEB

LostGTO
NORAD 40866·DEBRIS·🇨🇳 China

Lanciato Feb 24, 2012 da Xichang Satellite Launch Center

Loading…

TLE

ObsoletoSource: Space-Track

Epoca: Feb 13, 2017, 15:34 UTC

1 40866U 12008AG  17044.64907347 -.00009800  00000-0 -71327+0 0  9999
2 40866  20.2352 152.4634 7032891 188.0437 147.7766  2.25204733 16302

Traccia CZ-3C DEB in tempo reale con AllMySat

Download on the App Store